Penn Yan, NY

9:13 PM EST on February 06, 2016 (GMT -0500)
Penn Yan

Weather History for KPEO - September, 2012

Change the Weather History Date:

Sunday, September 2, 2012

  Actual Average (KITH) Record (KITH)
Temperature  
Mean Temperature 70 °F -  
Max Temperature 84 °F 75 °F 95 °F (1953)
Min Temperature 57 °F 53 °F 38 °F (1967)
Cooling Degree Days 4    
Growing Degree Days 20 (Base 50)    
Moisture  
Dew Point 53 °F    
Average Humidity 61    
Maximum Humidity 90    
Minimum Humidity 29    
Precipitation  
Precipitation 0.00 in - - ()
Sea Level Pressure  
Sea Level Pressure 30.07 in    
Wind  
Wind Speed 2 mph (WSW)    
Max Wind Speed 7 mph    
Max Gust Speed -    
Visibility 10 miles    
Events      
Averages and records for this station are not official NWS values.
T = Trace of Precipitation, MM = Missing Value Source: NWS Daily Summary

Daily Weather History Graph

Daily Weather History Graph

Search for Another Location

Airport or City:

Trip Planner

Search our weather history database for the weather conditions in past years. The results will help you decide how hot, cold, wet, or windy it might be!

Date:

Astronomy

Sep. 02, 2012 Rise Set
Actual Time 6:34 AM EDT 7:39 PM EDT
Civil Twilight 6:05 AM EDT 8:08 PM EDT
Nautical Twilight 5:31 AM EDT 8:43 PM EDT
Astronomical Twilight 4:54 AM EDT 9:19 PM EDT
Moon 8:21 PM EDT (9/2) 8:45 AM EDT (9/2)
Length of Visible Light 14h 03m
Length of Day
13h 05m
Waning Gibbous, 95% of the Moon is Illuminated
Sep 2
Waning Gibbous
Sep 8
Last Quarter
Sep 15
New
Sep 22
First Quarter
Sep 29
Full

Hourly Weather History & Observations

Time (EDT) Temp. Dew Point Humidity Pressure Visibility Wind Dir Wind Speed Gust Speed Precip Events Conditions
12:53 AM 60.1 °F 55.0 °F 83% 30.09 in 10.0 mi Calm Calm - N/A   Clear
1:53 AM 59.0 °F 55.0 °F 87% 30.09 in 10.0 mi Calm Calm - N/A   Clear
2:53 AM 57.9 °F 55.0 °F 90% 30.09 in 10.0 mi WSW 3.5 mph - N/A   Clear
4:53 AM 57.9 °F 55.0 °F 90% 30.09 in 10.0 mi Calm Calm - N/A   Clear
5:53 AM 57.9 °F 55.0 °F 90% 30.09 in 10.0 mi Calm Calm - N/A   Scattered Clouds
6:53 AM 57.9 °F 55.0 °F 90% 30.09 in 10.0 mi SSW 3.5 mph - N/A   Scattered Clouds
7:53 AM 61.0 °F 57.9 °F 90% 30.09 in 10.0 mi SW 3.5 mph - N/A   Clear
8:53 AM 66.0 °F 57.9 °F 75% 30.10 in 10.0 mi Calm Calm - N/A   Clear
9:53 AM 72.0 °F 55.0 °F 55% 30.09 in 10.0 mi SW 4.6 mph - N/A   Clear
10:53 AM 75.9 °F 55.9 °F 50% 30.09 in 10.0 mi Calm Calm - N/A   Clear
11:53 AM 81.0 °F 48.9 °F 33% 30.08 in 10.0 mi Variable 4.6 mph - N/A   Clear
12:53 PM 82.0 °F 48.9 °F 31% 30.07 in 10.0 mi Variable 6.9 mph - N/A   Clear
1:53 PM 82.0 °F 48.9 °F 31% 30.06 in 10.0 mi Variable 3.5 mph - N/A   Clear
2:53 PM 82.0 °F 50.0 °F 33% 30.04 in 10.0 mi Variable 4.6 mph - N/A   Clear
3:53 PM 82.9 °F 48.0 °F 29% 30.03 in 10.0 mi Variable 5.8 mph - N/A   Clear
4:53 PM 82.9 °F 48.9 °F 31% 30.02 in 10.0 mi Variable 5.8 mph - N/A   Clear
5:53 PM 82.0 °F 48.9 °F 31% 30.02 in 10.0 mi Variable 3.5 mph - N/A   Clear
6:53 PM 80.1 °F 50.0 °F 35% 30.02 in 10.0 mi Calm Calm - N/A   Clear
7:53 PM 70.0 °F 53.1 °F 55% 30.04 in 10.0 mi Calm Calm - N/A   Clear
8:53 PM 64.0 °F 54.0 °F 70% 30.06 in 10.0 mi Calm Calm - N/A   Clear
9:53 PM 68.0 °F 54.0 °F 61% 30.06 in 10.0 mi North 3.5 mph - N/A   Clear
10:53 PM 59.0 °F 54.0 °F 83% 30.07 in 10.0 mi Calm Calm - N/A   Clear
11:53 PM 57.9 °F 53.1 °F 84% 30.06 in 10.0 mi Calm Calm - N/A   Clear